SCP
0 0 0 0 0 0 0 0 0 0 0 0 0 0 0 0 0 0 0 0 0 0 0 0 0 1 1 1 1 1 1 1 2 2 1 1 1 1 1 1 1 1 0 0
0 0 0 0 0 0 0 0 0 0 0 0 0 0 0 0 0 0 0 0 0 0 0 0 0 0 1 1 1 1 1 1 1 2 2 1 1 1 1 1 1 1 0 0
0 0 0 0 0 0 0 0 0 0 0 0 0 0 0 0 0 0 0 0 0 0 0 0 0 0 0 1 1 1 1 1 1 2 2 2 1 1 1 1 1 1 1 0
0 0 0 0 0 0 0 0 0 0 0 0 0 0 0 0 0 0 0 0 0 0 0 0 0 0 0 0 1 1 1 1 1 2 2 2 2 1 1 1 1 1 1 1
0 0 0 0 0 0 0 0 0 0 0 0 0 0 0 0 0 0 0 0 0 0 0 0 0 0 0 0 0 0 1 1 1 1 2 2 2 1 1 1 1 1 1 1
0 0 0 0 0 0 0 0 0 0 0 0 0 0 0 0 0 0 0 0 0 0 0 0 0 0 0 0 0 0 0 1 1 1 1 1 1 1 2 2 1 1 1 1
0 0 0 0 0 0 0 0 0 0 0 0 0 0 0 0 0 0 0 0 0 0 0 0 0 0 0 0 0 0 0 0 0 0 1 1 1 1 1 1 2 2 2 1
0 0 0 0 0 0 0 0 0 0 0 0 0 0 0 0 0 0 0 0 0 0 0 0 0 0 0 0 0 0 0 0 0 0 0 0 0 0 1 1 2 2 2 2
0 0 0 0 0 0 0 0 0 0 0 0 0 0 0 0 0 0 0 0 0 0 0 0 0 0 0 0 0 0 0 0 0 0 0 0 0 0 0 1 1 2 2 2
0 0 0 0 0 0 0 0 0 0 0 0 0 0 0 0 0 0 0 0 0 0 0 0 0 0 0 0 0 0 0 0 0 0 0 0 0 0 0 0 1 1 1 1
0 0 0 0 0 0 0 0 0 0 0 0 0 0 0 0 0 0 0 0 0 0 0 0 0 0 0 0 0 0 0 0 0 0 0 0 0 0 0 0 0 1 1 1
0 0 0 0 0 0 0 0 0 0 0 0 0 0 0 0 0 0 0 0 0 0 0 0 0 0 0 0 0 0 0 0 0 0 0 0 0 0 0 0 0 0 1 1
0 0 0 0 0 0 0 0 0 0 0 0 0 0 0 0 0 0 0 0 0 0 0 0 0 0 0 0 0 0 0 0 0 0 0 0 0 0 0 0 0 0 0 1
0 0 0 0 0 0 0 0 0 0 0 0 0 0 0 0 0 0 0 0 0 0 0 0 0 0 0 0 0 0 0 0 0 0 0 0 0 0 0 0 0 0 0 0
0 0 0 0 0 0 0 0 0 0 0 0 0 0 0 0 0 0 0 0 0 0 0 0 0 0 0 0 0 0 0 0 0 0 0 0 0 0 0 0 0 0 0 0
0 0 0 0 0 0 0 0 0 0 0 0 0 0 0 0 0 0 0 0 0 0 0 0 0 0 0 0 0 0 0 0 0 0 0 0 0 0 0 0 0 0 0 0
0 0 0 0 0 0 0 0 0 0 0 0 0 0 0 0 0 0 0 0 0 0 0 0 0 0 0 0 0 0 0 0 0 0 0 0 0 0 0 0 0 0 0 0
0 0 0 0 0 0 0 0 0 0 0 0 0 0 0 0 0 0 0 0 0 0 0 0 0 0 0 0 0 0 0 0 0 0 0 0 0 0 0 0 0 0 0 0
0 0 0 0 0 0 0 0 0 0 0 0 0 0 0 0 0 0 0 0 0 0 0 0 0 0 0 0 0 0 0 0 0 0 0 0 0 0 0 0 0 0 0 0
0 0 0 0 0 0 0 0 0 0 0 0 0 0 0 0 0 0 0 0 0 0 0 0 0 0 0 0 0 0 0 0 0 0 0 0 0 0 0 0 0 0 0 0
0 0 0 0 0 0 0 0 0 0 0 0 0 0 0 0 0 0 0 0 0 0 0 0 0 0 0 0 0 0 0 0 0 0 0 0 0 0 0 0 0 0 0 0
0 0 0 0 0 0 0 0 0 0 0 0 0 0 0 0 0 0 0 0 0 0 0 0 0 0 0 0 0 0 0 0 0 0 0 0 0 0 0 0 0 0 0 0
0 0 0 0 0 0 0 0 0 0 0 0 0 0 0 0 0 0 0 0 0 0 0 0 0 0 0 0 0 0 0 0 0 0 0 0 0 0 0 0 0 0 0 0
0 0 0 0 0 0 0 0 0 0 0 0 0 0 0 0 0 0 0 0 0 0 0 0 0 0 0 0 0 0 0 0 0 0 0 0 0 0 0 0 0 0 0 0
0 0 0 0 0 0 0 0 0 0 0 0 0 0 0 0 0 0 0 0 0 0 0 0 0 0 0 0 0 0 0 0 0 0 0 0 0 0 0 0 0 0 0 0
0 0 0 0 0 0 0 0 0 0 0 0 0 0 0 0 0 0 0 0 0 0 0 0 0 0 0 0 0 0 0 0 0 0 0 0 0 0 0 0 0 0 0 0
Wind_Speed
2 3 6 9 8 4 4 5 5 5 2 2 7 10 10 6 5 6 6 6 7 7 5 4 4 5 5 4 5 6 6 6 5 4 4 4 4 3 3 2 3 4 3 4
2 6 8 4 3 2 2 3 4 4 2 2 5 10 8 7 6 7 7 7 7 5 3 2 3 4 5 5 5 6 6 6 6 5 4 3 3 2 2 2 3 3 4 4
8 5 4 3 2 4 4 5 5 3 3 1 2 7 4 3 2 2 3 4 4 5 5 4 3 4 4 4 5 5 6 6 6 5 3 3 2 2 2 2 2 3 4 4
6 3 3 4 5 6 7 4 3 2 1 3 1 5 5 3 3 4 4 3 4 3 4 4 4 3 4 4 4 4 5 5 5 6 5 6 5 5 5 3 3 3 4 4
6 4 4 6 7 6 4 2 2 3 2 2 2 4 8 2 5 7 6 5 4 4 4 4 4 4 3 3 3 3 4 4 4 5 6 7 5 3 2 2 3 3 3 3
3 2 4 4 3 5 2 2 2 2 2 4 6 5 8 5 7 6 6 5 4 4 3 3 2 2 1 1 2 3 4 3 4 5 5 6 6 5 4 4 4 3 2 2
3 3 2 2 3 2 3 4 2 1 1 7 4 5 9 6 5 6 6 5 4 4 4 3 3 3 2 2 2 3 3 3 3 4 4 4 5 6 6 6 5 4 3 3
6 6 6 4 6 6 6 7 7 6 6 4 2 8 7 4 2 2 2 3 3 3 3 4 4 3 3 2 2 2 3 2 2 3 3 3 4 4 4 4 4 4 4 3
6 6 2 2 2 7 6 6 4 4 1 2 5 6 7 2 1 0 1 2 3 3 3 3 3 2 2 2 1 1 2 2 2 2 2 2 3 3 4 3 3 3 2 2
5 3 2 2 1 2 5 5 4 4 4 5 5 5 5 4 4 3 2 3 3 2 2 2 2 2 1 1 1 2 2 1 1 1 2 2 2 3 3 3 3 3 3 3
3 3 1 1 6 7 4 4 4 4 4 5 4 7 5 7 7 6 6 4 4 4 3 3 2 1 1 2 2 2 1 1 1 1 1 1 1 1 2 2 3 3 2 3
3 4 3 5 3 2 4 6 7 6 6 5 4 8 2 3 3 4 4 3 2 3 3 2 2 2 1 1 1 1 1 1 0 0 1 1 1 2 2 2 2 2 3 3
5 5 2 3 3 1 3 4 4 3 3 4 6 8 2 1 1 1 2 3 3 3 3 2 2 1 1 1 0 0 0 0 1 1 1 1 1 1 1 1 2 2 2 2
5 4 7 10 7 5 5 5 5 5 6 7 9 8 5 2 2 2 2 2 2 3 3 3 2 2 1 1 1 0 0 0 1 1 1 1 1 1 1 1 1 1 2 2
4 4 5 5 4 5 6 8 9 10 10 9 10 10 10 8 7 5 4 3 3 3 3 3 3 2 2 1 1 1 0 0 1 1 1 1 0 1 1 1 1 1 1 1
2 3 3 4 3 3 6 10 12 13 11 11 9 11 8 5 3 3 4 4 5 5 4 3 3 3 2 2 1 1 1 0 1 1 1 0 1 1 1 1 1 1 1 1
4 4 3 4 1 2 9 12 13 11 9 10 14 13 5 3 7 8 7 6 6 6 5 4 4 3 3 2 2 2 2 1 1 1 1 1 0 0 0 1 1 1 1 0
7 5 3 2 3 9 10 4 7 10 10 10 8 6 6 7 7 5 5 6 6 5 5 4 3 2 2 1 1 1 1 2 2 1 1 0 0 0 0 1 1 0 0 0
6 7 4 4 5 9 9 4 6 7 9 9 11 9 6 2 1 4 4 5 6 6 5 4 4 3 2 2 2 2 2 1 1 1 1 1 1 1 1 1 1 0 0 1
3 5 5 5 5 10 9 4 3 3 9 5 7 9 5 4 4 7 4 4 4 3 3 3 2 2 2 2 2 3 2 2 2 2 1 1 1 2 2 2 1 0 1 1
5 5 7 7 7 11 7 2 4 6 8 3 5 7 7 7 7 4 3 3 3 3 3 3 3 2 2 2 3 3 3 3 2 1 1 1 1 1 2 1 1 1 0 0
10 8 8 7 8 12 3 5 8 7 2 1 3 4 5 5 3 2 3 3 3 3 2 3 3 1 1 2 3 3 3 2 1 1 1 1 0 0 1 1 1 1 1 1
9 10 8 10 10 4 5 6 5 2 2 2 2 2 3 3 3 3 3 3 3 3 3 2 3 2 1 1 2 3 2 1 1 1 1 1 0 0 0 1 1 1 1 1
4 3 4 5 6 4 4 3 2 2 3 2 2 2 3 3 4 3 3 3 2 2 2 2 2 2 1 1 1 2 1 2 2 2 1 1 1 0 0 1 1 2 2 2
5 5 5 6 4 3 4 5 5 3 1 1 1 1 3 3 3 4 3 3 3 2 1 1 2 2 1 0 0 0 1 2 2 2 1 1 1 1 1 1 2 3 3 3
4 6 7 8 6 5 5 3 3 3 3 3 2 1 1 3 4 3 3 2 2 2 1 1 1 1 1 1 0 0 1 2 2 2 2 1 1 1 1 1 2 3 4 5
Wind_Direction
157 133 203 207 205 208 189 207 232 243 245 230 243 257 263 258 241 240 237 228 225 227 228 205 195 180 163 162 168 170 167 170 163 166 173 174 180 179 173 175 171 169 165 160
112 228 225 205 201 211 208 223 248 274 267 240 263 267 262 248 233 228 224 227 226 221 210 195 182 172 170 174 179 177 174 174 176 178 181 178 167 172 172 170 172 171 165 164
194 226 199 175 190 204 227 217 226 251 314 303 302 292 266 265 243 249 238 225 213 200 200 196 186 182 175 175 183 181 179 178 178 170 150 131 124 124 162 184 186 183 171 166
222 242 175 182 207 195 233 230 218 229 241 271 183 277 274 252 267 253 245 232 220 208 195 188 186 186 188 192 185 176 171 169 171 169 168 166 173 185 200 192 188 181 176 174
225 205 187 204 214 190 214 218 212 217 199 281 235 232 279 271 251 250 242 230 222 206 189 187 191 193 191 182 174 169 163 166 166 169 178 180 184 187 166 156 170 179 184 186
241 221 199 205 206 183 154 65 44 66 95 250 217 194 271 228 225 239 234 225 213 201 191 185 174 143 119 143 156 153 155 166 168 172 178 186 183 173 162 170 180 189 192 198
255 267 251 166 132 147 131 112 58 353 235 242 196 197 249 245 235 221 218 214 205 188 175 163 149 143 129 127 147 151 151 159 164 173 181 188 187 182 184 186 191 190 196 207
192 240 220 200 184 181 191 167 170 196 219 260 221 226 248 261 268 232 198 181 175 168 170 165 165 158 146 129 129 143 156 158 161 170 181 184 182 187 193 192 191 197 203 204
190 230 252 223 180 158 172 208 196 147 119 249 251 267 297 298 324 339 149 151 178 179 173 162 147 140 138 124 111 129 152 154 164 172 173 170 181 187 188 184 185 187 189 181
162 211 254 239 132 238 184 165 132 153 173 233 260 248 242 236 240 232 209 206 204 174 160 150 145 139 136 117 74 70 85 116 138 152 170 169 181 186 182 174 181 182 179 176
142 159 266 182 195 193 175 180 177 171 184 188 237 256 224 209 206 208 215 212 192 179 176 166 152 134 103 74 70 71 63 63 67 87 114 136 151 150 149 162 175 175 172 179
156 136 213 238 246 221 199 198 179 183 218 209 219 260 284 224 210 193 199 192 175 171 164 149 141 116 95 90 80 81 78 84 75 79 93 122 125 124 141 162 171 166 170 178
147 138 131 322 314 301 233 225 207 190 172 195 210 255 331 19 45 189 189 185 173 163 155 147 145 154 157 142 108 67 38 56 43 75 85 80 81 110 150 166 166 163 165 166
146 165 192 209 218 192 227 238 211 180 204 222 228 245 271 259 233 240 217 194 185 174 169 167 177 192 191 182 165 149 345 53 86 102 110 109 117 120 103 103 133 157 160 166
147 197 219 241 238 194 219 227 214 212 215 218 236 236 243 231 222 219 207 186 179 188 195 197 198 206 205 201 200 193 194 51 102 123 131 158 98 85 92 91 83 83 116 156
152 193 198 257 257 239 252 236 222 224 227 234 247 254 251 238 218 218 211 198 203 211 213 212 210 210 215 215 217 209 199 193 128 133 139 55 76 93 110 112 99 89 79 81
168 154 168 235 262 10 261 230 216 217 214 209 231 244 238 226 220 218 210 208 215 215 210 209 214 217 221 216 198 199 202 161 139 144 125 75 67 114 134 120 115 124 123 99
169 161 165 181 136 226 242 212 207 218 230 220 234 242 224 228 233 223 202 204 214 210 207 210 208 205 207 196 181 171 145 140 148 150 140 135 152 184 139 138 162 182 162 200
179 163 161 172 214 261 277 235 193 207 248 227 232 243 242 228 298 264 224 203 204 203 204 203 198 193 183 176 166 141 132 139 160 184 210 220 200 192 185 197 216 221 217 254
161 155 165 181 204 233 248 235 201 163 261 242 220 230 220 160 222 250 220 195 198 195 187 181 173 161 162 174 149 146 164 173 212 232 238 233 208 198 199 210 218 249 230 247
173 186 197 203 224 252 254 238 132 179 247 267 213 217 195 199 222 225 161 165 169 166 166 156 148 155 176 171 156 169 186 211 229 235 231 223 215 215 207 200 207 183 210 284
180 185 199 192 217 245 220 151 184 222 250 228 215 210 202 214 218 181 170 169 159 153 149 145 142 156 170 161 162 181 209 222 198 177 185 200 223 217 156 160 175 174 180 217
199 194 190 197 215 222 174 197 225 203 208 231 228 221 191 204 208 192 183 178 170 167 164 154 153 159 186 175 171 196 222 186 154 153 194 198 152 136 162 181 189 201 217 225
241 214 188 226 247 239 229 235 248 222 226 242 213 195 178 194 193 188 186 187 188 181 171 155 150 171 226 238 201 205 194 161 156 174 200 190 163 180 217 220 208 209 217 225
210 182 200 231 254 275 257 238 241 238 214 194 210 190 192 181 191 189 191 199 201 202 186 160 173 194 226 252 281 236 158 143 166 186 196 202 201 212 237 242 234 235 233 230
201 188 195 223 217 211 238 241 210 197 218 213 200 238 211 182 189 189 200 204 189 182 168 161 181 206 233 213 240 283 171 159 172 192 202 207 211 224 235 247 274 262 253 257